CW5629 Weather Reports


Display with metric or nautical units.
time (UTC)temp
F
wind
direction
speed
MPH
gust
MPH
rain 1hr
in
rain 24hr
in
rain mn
in
humidity
%
barometer
mb
20260904065129 63 63 0.0 3.0 0.12 0.12 0.02 93 1013.2
20260904064141 63 212 0.0 2.0 0.12 0.12 0.02 93 1013.1
20260904063126 64 70 0.0 4.0 0.12 0.12 0.02 92 1013.0
20260904062119 64 238 0.0 5.0 0.12 0.12 0.02 91 1012.8
20260904061110 66 238 0.0 9.0 0.12 0.12 0.02 91 1012.7
20260904060116 67 245 1.0 5.0 0.00 0.00 0.00 92 1012.2
20260904055127 68 200 0.0 4.0 0.00 0.00 0.00 92 1011.7
20260904054121 68 182 0.0 2.0 0.00 0.00 0.00 91 1011.7
20260904053132 68 208 0.0 3.0 0.00 0.00 0.00 90 1011.6
20260904052119 68 233 0.0 2.0 0.00 0.00 0.00 90 1011.6
20260904051132 68 216 0.0 3.0 0.00 0.00 0.00 89 1011.6
20260904050144 68 200 1.0 5.0 0.00 0.00 0.00 88 1011.6
20260904045136 68 227 0.0 5.0 0.00 0.00 0.00 88 1011.6
20260904044141 69 207 0.0 5.0 0.00 0.00 0.00 87 1011.6
20260904043121 69 252 1.0 6.0 0.00 0.00 0.00 87 1011.6
20260904042127 69 167 0.0 5.0 0.00 0.00 0.00 88 1011.7
20260904041120 69 225 0.0 4.0 0.00 0.00 0.00 88 1011.9
20260904040132 68 194 1.0 5.0 0.00 0.00 0.00 89 1011.8
20260904035117 68 218 0.0 4.0 0.00 0.00 0.00 89 1011.7
20260904034130 68 148 1.0 4.0 0.00 0.00 0.00 89 1011.7
20260904033135 68 223 0.0 5.0 0.00 0.00 0.00 89 1012.0
20260904032135 68 217 0.0 2.0 0.00 0.00 0.00 90 1012.2
20260904031119 68 257 0.0 2.0 0.00 0.00 0.00 90 1012.2
20260904030130 68 221 0.0 3.0 0.00 0.00 0.00 91 1012.4
20260904025112 68 207 0.0 1.0 0.00 0.00 0.00 91 1012.6
20260904024131 68 184 0.0 3.0 0.00 0.00 0.00 91 1012.7
20260904023116 68 221 0.0 3.0 0.00 0.00 0.00 90 1012.9
20260904022148 68 51 0.0 3.0 0.00 0.00 0.00 90 1013.1
20260904021113 68 329 0.0 2.0 0.00 0.00 0.00 90 1013.1
20260904020126 68 218 0.0 5.0 0.00 0.00 0.00 90 1013.1
20260904015120 68 221 0.0 4.0 0.00 0.00 0.00 90 1013.1
20260904014125 69 205 0.0 8.0 0.00 0.00 0.00 90 1013.2
20260904013119 68 198 1.0 4.0 0.00 0.00 0.00 90 1013.2
20260904012125 68 203 1.0 3.0 0.00 0.00 0.00 90 1013.4
20260904011135 68 199 0.0 4.0 0.00 0.00 0.00 89 1013.3
20260904010142 68 110 0.0 7.0 0.00 0.00 0.00 89 1013.4
20260904005119 68 212 1.0 4.0 0.00 0.00 0.00 90 1013.6
20260904004124 68 150 0.0 4.0 0.00 0.00 0.00 90 1013.7
20260904003117 68 239 1.0 4.0 0.00 0.00 0.00 90 1013.8
20260904002131 68 232 1.0 6.0 0.00 0.00 0.00 90 1013.9
20260904001117 68 177 0.0 5.0 0.00 0.00 0.00 90 1014.1
20260904000130 68 246 0.0 2.0 0.00 0.00 0.00 90 1014.1
20260903235117 68 211 0.0 5.0 0.00 0.00 0.00 89 1014.1
20260903234111 68 231 0.0 4.0 0.00 0.00 0.00 89 1014.1
20260903233116 68 208 0.0 3.0 0.00 0.00 0.00 88 1014.2
20260903232130 68 23 1.0 5.0 0.00 0.00 0.00 88 1014.5
20260903231117 68 241 0.0 5.0 0.00 0.00 0.00 88 1014.5
20260903230150 68 206 0.0 3.0 0.00 0.00 0.00 87 1014.8
20260903225122 68 184 1.0 3.0 0.00 0.00 0.00 87 1014.8
20260903224135 68 236 0.0 5.0 0.00 0.00 0.00 86 1014.9
20260903223121 68 153 0.0 2.0 0.00 0.00 0.00 85 1014.8
20260903222134 68 210 0.0 2.0 0.00 0.00 0.00 85 1014.9
20260903221148 68 204 1.0 5.0 0.00 0.00 0.00 85 1015.1
20260903220133 68 241 1.0 5.0 0.00 0.00 0.00 85 1015.2
20260903215119 68 60 1.0 4.0 0.00 0.00 0.00 85 1015.4
20260903214151 68 229 1.0 3.0 0.00 0.00 0.00 85 1015.5
20260903213143 68 191 0.0 3.0 0.00 0.00 0.00 85 1015.6
20260903212136 68 167 1.0 4.0 0.00 0.00 0.00 85 1015.7
20260903211119 68 57 0.0 2.0 0.00 0.00 0.00 85 1015.9
20260903210131 69 68 0.0 5.0 0.00 0.00 0.00 84 1015.9
20260903205143 69 67 1.0 5.0 0.00 0.00 0.00 85 1015.9
20260903204135 69 245 0.0 4.0 0.00 0.00 0.00 85 1016.0
20260903203120 69 116 0.0 6.0 0.00 0.00 0.00 85 1016.2
20260903202134 69 193 0.0 3.0 0.00 0.00 0.00 85 1016.3
20260903201139 69 213 0.0 4.0 0.00 0.00 0.00 84 1016.4
20260903200130 69 222 0.0 4.0 0.00 0.00 0.00 83 1016.2
20260903195144 69 212 1.0 2.0 0.00 0.00 0.00 83 1016.2
20260903194137 70 205 1.0 5.0 0.00 0.00 0.00 82 1016.4
20260903193122 70 224 0.0 4.0 0.00 0.00 0.00 82 1016.4
20260903192113 70 165 0.0 2.0 0.00 0.00 0.00 81 1016.3
20260903191126 70 231 0.0 3.0 0.00 0.00 0.00 80 1016.4
20260903190131 70 203 0.0 1.0 0.00 0.00 0.00 79 1016.5
20260903185125 71 200 0.0 5.0 0.00 0.00 0.00 79 1016.6
20260903184131 71 186 0.0 2.0 0.00 0.00 0.00 78 1016.7
20260903183124 71 198 0.0 5.0 0.00 0.00 0.00 78 1016.7
20260903182136 71 176 1.0 4.0 0.00 0.00 0.00 77 1016.7
20260903181121 72 224 2.0 7.0 0.00 0.00 0.00 77 1016.8
20260903180134 72 224 0.0 3.0 0.00 0.00 0.00 76 1016.6
20260903175120 72 24 1.0 6.0 0.00 0.00 0.00 75 1016.6
20260903174134 73 75 1.0 8.0 0.00 0.00 0.00 75 1016.7
20260903173119 74 222 1.0 4.0 0.00 0.00 0.00 76 1016.6
20260903172116 75 240 1.0 4.0 0.00 0.00 0.00 75 1016.6
20260903171122 75 192 1.0 7.0 0.00 0.00 0.00 75 1016.5
20260903170116 76 342 1.0 5.0 0.00 0.00 0.00 73 1016.5
20260903165129 77 225 1.0 5.0 0.00 0.00 0.00 72 1016.6
20260903164114 77 200 2.0 6.0 0.00 0.00 0.00 71 1016.6
20260903163146 78 7 1.0 5.0 0.00 0.00 0.00 70 1016.6
20260903162137 78 217 1.0 8.0 0.00 0.00 0.00 69 1016.7
20260903161151 78 210 0.0 5.0 0.00 0.00 0.00 70 1016.6
20260903160116 78 201 1.0 6.0 0.00 0.00 0.00 70 1016.9
20260903155129 77 231 1.0 7.0 0.00 0.00 0.00 71 1016.9
20260903154140 77 49 1.0 7.0 0.00 0.00 0.00 72 1016.9
20260903153124 77 225 1.0 6.0 0.00 0.00 0.00 69 1017.0
20260903152116 78 226 0.0 4.0 0.00 0.00 0.00 68 1017.0
20260903151126 79 231 0.0 4.0 0.00 0.00 0.00 67 1016.9
20260903150131 79 200 0.0 6.0 0.00 0.00 0.00 66 1017.2
20260903145123 78 216 1.0 4.0 0.00 0.00 0.00 67 1017.2
20260903144136 79 104 1.0 4.0 0.00 0.00 0.00 65 1017.3
20260903143117 79 241 1.0 5.0 0.00 0.00 0.00 66 1017.3
20260903142131 78 214 1.0 6.0 0.00 0.00 0.00 66 1017.4
20260903141116 78 232 0.0 6.0 0.00 0.00 0.00 67 1017.4
20260903140130 78 199 1.0 5.0 0.00 0.00 0.00 67 1017.4
20260903135142 78 26 0.0 6.0 0.00 0.00 0.00 68 1017.4
20260903134132 76 290 1.0 8.0 0.00 0.00 0.00 70 1017.5
20260903133138 76 138 0.0 10.0 0.00 0.00 0.00 70 1017.7
20260903132129 76 244 2.0 10.0 0.00 0.00 0.00 69 1017.8
20260903131141 76 212 1.0 4.0 0.00 0.00 0.00 69 1017.8
20260903130133 76 253 0.0 3.0 0.00 0.00 0.00 71 1017.7
20260903125139 75 214 0.0 9.0 0.00 0.00 0.00 72 1017.6
20260903124131 76 199 1.0 7.0 0.00 0.00 0.00 72 1017.5
20260903123116 76 79 0.0 6.0 0.00 0.00 0.00 72 1017.5
20260903122129 75 235 1.0 5.0 0.00 0.00 0.00 74 1017.6
20260903121142 74 191 1.0 5.0 0.00 0.00 0.00 78 1017.8
20260903120134 74 147 1.0 4.0 0.00 0.00 0.00 81 1017.7
20260903115121 74 219 1.0 3.0 0.00 0.00 0.00 82 1017.7
20260903114134 74 199 0.0 5.0 0.00 0.00 0.00 82 1017.6
20260903113121 74 203 1.0 5.0 0.00 0.00 0.00 83 1017.6
20260903112113 73 172 0.0 4.0 0.00 0.00 0.00 84 1017.6
20260903111120 73 259 1.0 5.0 0.00 0.00 0.00 84 1017.6
20260903110129 72 231 1.0 5.0 0.00 0.00 0.00 85 1017.8
20260903105124 72 42 0.0 2.0 0.00 0.00 0.00 86 1017.6
20260903104136 73 109 0.0 3.0 0.00 0.00 0.00 84 1017.7
20260903103121 74 43 2.0 7.0 0.00 0.00 0.00 79 1017.9
20260903102134 74 70 1.0 4.0 0.00 0.00 0.00 77 1017.6
20260903101148 74 224 0.0 5.0 0.00 0.00 0.00 80 1017.5
20260903100111 73 317 0.0 2.0 0.00 0.00 0.00 79 1017.6
20260903095144 73 34 1.0 4.0 0.00 0.00 0.00 80 1017.5
20260903094115 72 102 0.0 5.0 0.00 0.00 0.00 82 1017.7
20260903093120 72 91 0.0 2.0 0.00 0.00 0.00 84 1017.8
20260903092112 71 205 0.0 2.0 0.00 0.00 0.00 84 1017.8
20260903091123 71 208 0.0 2.0 0.00 0.00 0.00 85 1017.9
20260903090136 71 239 0.0 2.0 0.00 0.00 0.00 85 1017.9
20260903085122 70 183 0.0 3.0 0.00 0.00 0.00 86 1018.0
20260903084116 70 229 0.0 1.0 0.00 0.00 0.00 86 1017.9
20260903083127 70 40 0.0 3.0 0.00 0.00 0.00 86 1017.8
20260903082113 69 200 0.0 1.0 0.00 0.00 0.00 87 1017.9
20260903081127 68 219 0.0 1.0 0.00 0.04 0.00 87 1017.8
20260903080114 68 231 0.0 0.0 0.00 0.04 0.00 86 1017.9
20260903075112 68 231 0.0 0.0 0.00 0.04 0.00 86 1017.9
20260903074142 68 224 0.0 1.0 0.00 0.04 0.00 85 1017.9
20260903073111 68 217 0.0 0.0 0.00 0.04 0.00 85 1017.6
20260903072124 68 107 0.0 1.0 0.00 0.04 0.00 87 1017.6
20260903071110 67 216 0.0 1.0 0.00 0.28 0.00 87 1017.5
20260903070124 67 200 0.0 2.0 0.00 0.28 0.00 86 1017.4
20260903065137 67 219 0.0 2.0 0.00 0.28 0.00 87 1017.4